GW5055 Weather Reports


time (UTC)temp
C
wind
direction
speed
KPH
gust
KPH
rain 1hr
cm
rain 24hr
cm
rain mn
cm
humidity
%
barometer
mb
20260507021231 6 282 4.8 12.9 0.00 0.91 0.91 86 1011.5
20260507020730 6 315 6.4 14.5 0.00 0.91 0.91 87 1011.6
20260507020225 6 260 9.7 12.9 0.00 0.91 0.91 87 1011.7
20260507015723 6 250 3.2 11.3 0.00 0.91 0.91 88 1011.6
20260507015221 6 270 4.8 16.1 0.00 0.91 0.91 87 1011.7
20260507014717 7 259 4.8 11.3 0.00 0.91 0.91 87 1011.8
20260507014213 7 254 6.4 17.7 0.00 0.91 0.91 86 1011.8
20260507013710 7 183 3.2 11.3 0.00 0.91 0.91 86 1011.7
20260507013208 6 291 4.8 6.4 0.00 0.91 0.91 87 1011.7
20260507012705 6 219 4.8 11.3 0.00 0.91 0.91 87 1011.6
20260507012200 6 253 6.4 11.3 0.00 0.91 0.91 86 1011.7
20260507011658 6 198 1.6 6.4 0.00 0.91 0.91 87 1011.6
20260507011154 6 251 9.7 12.9 0.00 0.91 0.91 87 1011.6
20260507010649 6 235 9.7 11.3 0.00 0.91 0.91 86 1011.6
20260507010145 6 290 3.2 11.3 0.00 0.91 0.91 86 1011.6
20260507005643 6 313 8.0 9.7 0.00 0.91 0.91 86 1011.5
20260507005139 6 266 6.4 9.7 0.00 0.91 0.91 87 1011.6
20260507004636 6 218 4.8 11.3 0.00 0.91 0.91 86 1011.5
20260507004133 6 258 4.8 9.7 0.00 0.91 0.91 86 1011.6
20260507003630 6 243 4.8 9.7 0.00 0.91 0.91 85 1011.5
20260507003124 6 231 14.5 20.9 0.00 0.91 0.91 84 1011.5
20260507002621 6 250 6.4 14.5 0.00 0.91 0.91 84 1011.5
20260507002117 6 217 9.7 17.7 0.00 0.91 0.91 83 1011.4
20260507001614 6 217 8.0 9.7 0.00 0.91 0.91 83 1011.2
20260507001111 6 239 9.7 17.7 0.00 0.91 0.91 82 1011.2
20260507000608 6 250 4.8 11.3 0.00 0.91 0.91 83 1011.4
20260506235601 6 279 8.0 12.9 0.00 0.91 0.91 83 1011.2
20260506235100 7 203 6.4 24.1 0.00 0.91 0.91 83 1011.0
20260506234558 7 170 4.8 11.3 0.00 0.91 0.91 85 1011.1
20260506234055 7 271 4.8 12.9 0.00 0.91 0.91 84 1011.0
20260506233552 7 267 4.8 12.9 0.00 0.91 0.91 84 1010.9
20260506233049 7 219 8.0 14.5 0.00 0.91 0.91 84 1010.8
20260506232545 7 234 6.4 20.9 0.00 0.91 0.91 83 1010.9
20260506232041 7 214 6.4 11.3 0.00 0.91 0.91 83 1010.9
20260506231538 7 225 1.6 17.7 0.00 0.91 0.91 83 1010.9
20260506231036 7 202 6.4 12.9 0.00 0.91 0.91 84 1011.0
20260506230532 7 191 9.7 17.7 0.00 0.91 0.91 83 1010.7
20260506230030 7 167 9.7 12.9 0.00 0.91 0.91 83 1010.5
20260506225527 7 203 4.8 9.7 0.00 0.91 0.91 83 1010.6
20260506225023 7 215 3.2 12.9 0.00 0.91 0.91 82 1010.8
20260506224520 7 219 4.8 12.9 0.00 0.91 0.91 82 1010.4
20260506224016 7 170 6.4 17.7 0.00 0.91 0.91 81 1010.6
20260506223512 7 224 6.4 9.7 0.00 0.91 0.91 82 1010.6
20260506223009 7 198 8.0 12.9 0.00 0.91 0.91 82 1010.5
20260506222506 8 185 1.6 9.7 0.00 0.91 0.91 84 1010.4
20260506222002 8 188 3.2 9.7 0.00 0.91 0.91 84 1010.5
20260506221459 8 220 4.8 6.4 0.00 0.91 0.91 82 1010.2
20260506220958 8 244 9.7 11.3 0.00 0.91 0.91 81 1010.4
20260506220453 8 199 8.0 12.9 0.00 0.91 0.91 81 1010.3
20260506215949 8 192 1.6 6.4 0.00 0.91 0.91 81 1010.4
20260506215446 8 189 1.6 11.3 0.00 0.91 0.91 82 1010.3
20260506214947 9 226 3.2 11.3 0.00 0.91 0.91 82 1010.3
20260506214444 9 224 1.6 4.8 0.00 0.91 0.91 81 1010.3
20260506213941 9 188 3.2 4.8 0.00 0.91 0.91 80 1010.3
20260506213439 10 234 3.2 3.2 0.00 0.91 0.91 80 1010.2
20260506212936 9 193 3.2 4.8 0.00 0.91 0.91 79 1010.2
20260506212432 9 164 1.6 6.4 0.00 0.91 0.91 82 1010.3
20260506211932 9 184 3.2 4.8 0.00 0.91 0.91 83 1010.3
20260506211429 9 176 6.4 6.4 0.00 0.91 0.91 81 1010.3
20260506210926 8 170 3.2 4.8 0.00 0.91 0.91 82 1010.2
20260506210422 9 161 6.4 11.3 0.00 0.91 0.91 80 1010.3
20260506205920 8 148 4.8 6.4 0.00 0.91 0.91 80 1010.4
20260506205415 8 158 4.8 6.4 0.00 0.91 0.91 80 1010.1
20260506204912 9 178 6.4 6.4 0.00 0.91 0.91 78 1010.1
20260506204410 9 176 1.6 3.2 0.00 0.91 0.91 78 1010.1
20260506203907 10 160 3.2 4.8 0.00 0.91 0.91 77 1010.2
20260506203404 10 185 0.0 0.0 0.00 0.91 0.91 75 1010.0
20260506202901 10 172 0.0 0.0 0.00 0.91 0.91 72 1010.2
20260506202358 10 133 0.0 0.0 0.00 0.91 0.91 75 1010.0
20260506201855 9 229 4.8 4.8 0.00 0.91 0.91 75 1010.2
20260506201352 9 241 4.8 6.4 0.00 0.91 0.91 75 1010.2
20260506200848 8 342 3.2 6.4 0.00 0.91 0.91 77 1010.5
20260506200344 9 208 4.8 6.4 0.00 0.91 0.91 76 1010.3
20260506195841 10 207 1.6 4.8 0.00 0.91 0.91 73 1010.2
20260506195338 9 287 4.8 4.8 0.00 0.91 0.91 74 1010.3
20260506194835 8 222 3.2 6.4 0.00 0.91 0.91 76 1010.2
20260506194332 8 260 4.8 6.4 0.00 0.91 0.91 77 1010.2
20260506193829 8 287 6.4 6.4 0.00 0.91 0.91 76 1010.2
20260506193326 8 310 4.8 9.7 0.00 0.91 0.91 76 1010.3
20260506192822 8 271 4.8 9.7 0.00 0.91 0.91 77 1010.4
20260506192319 8 226 3.2 9.7 0.00 0.91 0.91 78 1010.4
20260506191816 10 195 3.2 3.2 0.00 0.91 0.91 74 1010.5
20260506191312 9 274 6.4 6.4 0.00 0.91 0.91 75 1010.2
20260506190810 9 252 3.2 4.8 0.00 0.91 0.91 79 1010.0
20260506190306 8 182 0.0 4.8 0.00 0.91 0.91 78 1009.9
20260506185803 8 305 4.8 6.4 0.00 0.91 0.91 78 1010.2
20260506185300 8 274 4.8 6.4 0.00 0.91 0.91 79 1010.2
20260506184757 10 285 6.4 9.7 0.00 0.91 0.91 76 1010.2
20260506184254 9 303 1.6 9.7 0.00 0.91 0.91 78 1010.3
20260506183751 9 194 0.0 3.2 0.00 0.91 0.91 76 1010.2
20260506183251 10 178 1.6 3.2 0.00 0.91 0.91 76 1010.5
20260506182749 9 310 4.8 6.4 0.00 0.91 0.91 79 1010.4
20260506182246 8 225 3.2 4.8 0.00 0.91 0.91 80 1010.5
20260506181744 8 183 0.0 3.2 0.00 0.91 0.91 81 1010.6
20260506181241 8 184 1.6 3.2 0.00 0.91 0.91 81 1010.5
20260506180738 8 184 4.8 6.4 0.00 0.91 0.91 82 1010.5
20260506180234 8 267 1.6 4.8 0.00 0.91 0.91 81 1010.4
20260506175730 8 190 0.0 3.2 0.00 0.91 0.91 83 1010.4
20260506175227 7 234 3.2 4.8 0.00 0.91 0.91 83 1010.6
20260506174725 8 178 1.6 4.8 0.00 0.91 0.91 81 1010.5
20260506174221 8 183 1.6 3.2 0.00 0.91 0.91 82 1010.4
20260506173719 8 303 3.2 4.8 0.00 0.91 0.91 81 1010.4
20260506173216 7 187 1.6 4.8 0.00 0.91 0.91 83 1010.6
20260506172713 7 329 3.2 4.8 0.00 0.91 0.91 82 1010.4
20260506172209 8 213 1.6 3.2 0.00 0.91 0.91 80 1010.3
20260506171707 7 189 1.6 1.6 0.00 0.91 0.91 82 1010.4
20260506171204 7 349 3.2 3.2 0.00 0.91 0.91 83 1010.5
20260506170702 7 193 0.0 1.6 0.00 0.91 0.91 83 1010.1
20260506170158 7 26 1.6 3.2 0.00 0.91 0.91 83 1010.4
20260506165657 7 110 0.0 3.2 0.00 0.91 0.91 84 1010.3
20260506165153 7 30 4.8 6.4 0.00 0.91 0.91 84 1010.3
20260506164650 7 191 0.0 1.6 0.00 0.91 0.91 86 1010.3
20260506164148 7 78 0.0 3.2 0.00 0.91 0.91 86 1010.1
20260506163643 7 169 3.2 6.4 0.00 0.91 0.91 85 1010.2
20260506163139 7 148 0.0 1.6 0.00 0.91 0.91 86 1010.0
20260506162635 7 65 3.2 6.4 0.00 0.91 0.91 86 1009.9
20260506162133 7 47 1.6 9.7 0.00 0.91 0.91 87 1010.0
20260506161630 7 152 4.8 12.9 0.00 0.91 0.91 86 1010.1
20260506161127 7 96 3.2 6.4 0.00 0.91 0.91 86 1010.0
20260506160624 6 187 1.6 6.4 0.00 0.91 0.91 88 1010.2
20260506160121 7 40 6.4 6.4 0.00 0.91 0.91 87 1010.1
20260506155620 6 186 1.6 9.7 0.00 0.91 0.91 88 1010.3
20260506155116 6 357 4.8 9.7 0.00 0.91 0.91 91 1010.6
20260506153218 6 48 6.4 11.3 0.00 0.91 0.91 89 1010.5
20260506152715 6 2 8.0 9.7 0.00 0.91 0.91 90 1010.5
20260506152213 6 164 1.6 9.7 0.00 0.91 0.91 93 1010.7
20260506151712 6 358 4.8 9.7 0.00 0.91 0.91 92 1010.5
20260506151208 6 37 3.2 3.2 0.00 0.91 0.91 93 1010.6
20260506150704 6 339 3.2 4.8 0.00 0.91 0.91 93 1010.4
20260506150201 6 350 3.2 11.3 0.00 0.91 0.91 93 1010.5
20260506145658 6 269 4.8 12.9 0.00 0.91 0.91 92 1010.6
20260506145154 6 347 8.0 11.3 0.00 0.91 0.91 92 1010.5
20260506144653 6 116 1.6 6.4 0.00 0.91 0.91 94 1010.4
20260506144149 6 51 6.4 9.7 0.00 0.91 0.91 93 1010.6
20260506143646 5 24 1.6 6.4 0.00 0.91 0.91 94 1010.4
20260506143144 5 33 3.2 11.3 0.00 0.91 0.91 92 1010.4
20260506142643 5 3 4.8 11.3 0.00 0.91 0.91 92 1010.4
20260506142140 5 117 4.8 11.3 0.00 0.91 0.91 91 1010.1
20260506141638 5 44 6.4 12.9 0.00 0.91 0.91 92 1010.4
20260506141136 5 121 1.6 4.8 0.00 0.91 0.91 94 1010.3
20260506140633 6 34 4.8 6.4 0.00 0.91 0.91 95 1010.4
20260506140130 5 137 3.2 12.9 0.00 0.91 0.91 95 1010.1
20260506135627 6 25 4.8 6.4 0.00 0.91 0.91 96 1010.1
20260506135123 6 40 6.4 11.3 0.00 0.91 0.91 96 1010.2
20260506134620 6 27 6.4 9.7 0.00 0.91 0.91 96 1010.1
20260506134115 5 8 3.2 6.4 0.00 0.91 0.91 97 1010.0
20260506133613 5 54 3.2 6.4 0.13 0.91 0.91 97 1010.3
20260506133110 5 55 3.2 4.8 0.13 0.91 0.91 97 1010.2
20260506132608 5 63 0.0 4.8 0.00 0.89 0.89 97 1010.2
20260506132104 5 6 3.2 4.8 0.00 0.89 0.89 98 1010.0
20260506131602 5 119 1.6 4.8 0.00 0.89 0.89 98 1010.0
20260506131058 5 97 0.0 9.7 0.18 0.89 0.89 98 1009.8
20260506130555 5 92 4.8 4.8 0.18 0.89 0.89 98 1010.0
20260506130053 5 86 3.2 4.8 0.00 0.86 0.86 98 1009.9
20260506125551 5 111 3.2 6.4 0.18 0.86 0.86 98 1010.0
20260506125048 5 111 1.6 4.8 0.18 0.86 0.86 99 1010.0
20260506124545 5 135 1.6 3.2 0.00 0.84 0.84 99 1010.1
20260506124043 5 132 0.0 1.6 0.13 0.84 0.84 99 1010.1
20260506123541 5 148 0.0 0.0 0.13 0.84 0.84 99 1010.0
20260506123039 5 123 0.0 0.0 0.18 0.81 0.81 99 1010.2
20260506122535 5 160 0.0 0.0 0.18 0.81 0.81 99 1009.9
20260506122034 5 159 0.0 0.0 0.00 0.79 0.79 99 1010.1
20260506121531 5 139 0.0 0.0 0.13 0.79 0.79 99 1010.0
20260506121027 5 131 0.0 0.0 0.13 0.79 0.79 99 1010.0
20260506120525 5 144 0.0 0.0 0.18 0.76 0.76 99 1010.1
20260506120022 5 151 0.0 0.0 0.18 0.76 0.76 98 1010.3
20260506115520 5 143 0.0 1.6 0.00 0.74 0.74 98 1010.2
20260506115018 5 136 0.0 3.2 0.00 0.74 0.74 98 1009.9
20260506114515 5 156 0.0 0.0 0.00 0.74 0.74 98 1010.1
20260506114014 5 150 0.0 0.0 0.00 0.74 0.74 98 1010.2
20260506113511 5 136 0.0 1.6 0.00 0.74 0.74 98 1010.1
20260506113008 5 159 0.0 1.6 0.00 0.74 0.74 98 1010.1
20260506112505 5 156 1.6 3.2 0.13 0.74 0.74 98 1010.0
20260506112002 5 98 3.2 4.8 0.13 0.74 0.74 98 1009.7
20260506111500 5 91 3.2 4.8 0.00 0.71 0.71 99 1009.9
20260506110956 5 105 3.2 4.8 0.00 0.71 0.71 99 1009.4
20260506110455 5 158 1.6 4.8 0.00 0.71 0.71 99 1009.8
20260506105951 5 138 3.2 4.8 0.00 0.71 0.71 99 1009.8
20260506105447 5 136 1.6 3.2 0.18 0.71 0.71 99 1010.1
20260506104945 5 100 1.6 3.2 0.18 0.71 0.71 98 1010.2
20260506104443 5 144 0.0 4.8 0.13 0.69 0.69 98 1010.2
20260506103941 5 144 1.6 3.2 0.00 0.66 0.66 99 1010.2
20260506103438 5 112 1.6 1.6 0.00 0.66 0.66 99 1009.9
20260506102934 5 102 1.6 3.2 0.00 0.66 0.66 99 1010.0
20260506102433 5 110 1.6 1.6 0.18 0.66 0.66 99 1009.9
20260506101930 5 167 0.0 0.0 0.18 0.66 0.66 99 1010.0
20260506101426 5 158 0.0 0.0 0.00 0.64 0.64 99 1010.1
20260506100923 5 157 0.0 0.0 0.00 0.64 0.64 99 1009.9
20260506100421 5 140 0.0 0.0 0.13 0.64 0.64 99 1009.9
20260506095919 5 159 0.0 0.0 0.18 0.61 0.61 99 1010.2
20260506095417 5 154 0.0 0.0 0.18 0.61 0.61 99 1010.3
20260506094913 5 161 1.6 3.2 0.13 0.58 0.58 99 1010.1
20260506094412 5 180 1.6 3.2 0.13 0.58 0.58 99 1010.3
20260506093909 5 180 0.0 3.2 0.18 0.56 0.56 99 1010.3
20260506093407 5 172 1.6 1.6 0.18 0.56 0.56 99 1010.2
20260506092904 5 177 0.0 0.0 0.00 0.53 0.53 99 1010.4
20260506092402 5 174 0.0 0.0 0.18 0.53 0.53 99 1010.2
20260506091858 5 174 0.0 0.0 0.00 0.51 0.51 99 1010.1
20260506091357 5 174 0.0 0.0 0.13 0.51 0.51 99 1010.0
20260506090854 5 173 0.0 0.0 0.13 0.51 0.51 99 1009.9
20260506090351 5 171 0.0 0.0 0.18 0.48 0.48 99 1009.8
20260506085848 5 153 0.0 0.0 0.18 0.48 0.48 99 1010.0
20260506085344 5 171 0.0 0.0 0.13 0.46 0.46 99 1010.1
20260506084841 5 172 0.0 0.0 0.13 0.46 0.46 99 1010.2
20260506084338 5 178 0.0 0.0 0.18 0.43 0.43 99 1010.3
20260506083834 5 179 1.6 1.6 0.18 0.43 0.43 99 1010.3
20260506083332 5 158 0.0 0.0 0.13 0.41 0.41 98 1010.0
20260506082829 5 159 0.0 0.0 0.30 0.41 0.41 98 1010.0
20260506082325 5 164 0.0 0.0 0.18 0.38 0.38 98 1010.1
20260506081822 5 159 0.0 0.0 0.13 0.36 0.36 98 1010.1
20260506081320 5 122 0.0 3.2 0.30 0.36 0.36 98 1010.1
20260506080817 5 167 0.0 0.0 0.18 0.33 0.33 99 1010.2
20260506080313 5 161 0.0 0.0 0.13 0.30 0.30 98 1010.0
20260506073257 5 158 4.8 6.4 0.18 0.20 0.20 99 1010.1
20260506072754 5 171 8.0 9.7 0.00 0.18 0.18 99 1010.2
20260506072252 5 178 9.7 11.3 0.00 0.18 0.18 99 1010.3
20260506071749 5 168 4.8 9.7 0.13 0.18 0.18 99 1010.4
20260506071247 5 167 3.2 4.8 0.13 0.18 0.18 99 1010.2
20260506070744 5 161 4.8 11.3 0.00 0.15 0.15 99 1010.0
20260506070241 5 159 4.8 11.3 0.00 0.15 0.15 99 1010.2
20260506062218 5 170 11.3 14.5 0.00 0.15 0.15 99 1010.7
20260506061714 5 152 8.0 11.3 0.00 0.15 0.15 99 1010.7
20260506061211 5 184 9.7 12.9 0.00 0.15 0.15 99 1010.5
20260506060710 5 167 12.9 14.5 0.00 0.15 0.15 99 1010.4
20260506060206 5 157 6.4 12.9 0.18 0.15 0.15 99 1010.7
20260506051138 6 165 8.0 11.3 0.00 0.10 0.10 99 1010.1
20260506050637 6 187 14.5 20.9 0.18 0.10 0.10 99 1010.4
20260506050133 6 159 14.5 17.7 0.18 0.10 0.10 99 1010.3
20260506045126 6 179 16.1 17.7 0.00 0.08 0.08 99 1010.5
20260506044624 6 182 8.0 11.3 0.00 0.08 0.08 99 1010.5
20260506044121 6 185 9.7 14.5 0.13 0.08 0.08 99 1010.6
20260506043618 6 156 9.7 14.5 0.13 0.08 0.08 99 1010.4
20260506043117 6 156 12.9 16.1 0.00 0.05 0.05 99 1010.5
20260506042615 6 129 9.7 14.5 0.18 0.05 0.05 99 1010.5
20260506042113 6 166 9.7 14.5 0.18 0.05 0.05 98 1010.5
20260506041612 6 168 8.0 14.5 0.00 0.03 0.03 98 1010.4
20260506041108 6 167 11.3 14.5 0.13 0.03 0.03 98 1010.3
20260506040606 6 164 14.5 20.9 0.13 0.03 0.03 98 1010.2
20260506035559 6 166 9.7 12.9 0.00 0.36 0.36 98 1010.7
20260506035055 6 163 11.3 12.9 0.00 0.36 0.36 98 1010.6
20260506034553 6 188 12.9 17.7 0.00 0.36 0.36 98 1010.7
20260506034050 6 177 9.7 14.5 0.00 0.36 0.36 98 1010.7
20260506033547 6 174 9.7 20.9 0.18 0.36 0.36 98 1011.0
20260506033044 6 176 9.7 11.3 0.18 0.36 0.36 98 1011.1
20260506032541 6 190 6.4 11.3 0.00 0.33 0.33 98 1010.9
20260506032038 6 170 14.5 17.7 0.00 0.33 0.33 98 1010.5
20260506031536 6 191 8.0 14.5 0.13 0.33 0.33 98 1010.5
20260506031032 6 177 9.7 12.9 0.13 0.33 0.33 98 1010.5
20260506030530 6 184 9.7 12.9 0.00 0.30 0.30 97 1010.3
20260506030027 6 156 9.7 11.3 0.18 0.30 0.30 98 1010.1
20260506025525 6 148 6.4 9.7 0.18 0.30 0.30 97 1010.2
20260506025020 6 156 8.0 11.3 0.00 0.28 0.28 97 1010.4
20260506024518 6 156 8.0 12.9 0.00 0.28 0.28 97 1010.7
20260506024014 6 149 6.4 12.9 0.13 0.28 0.28 97 1010.8
20260506023510 6 152 8.0 16.1 0.13 0.28 0.28 96 1010.9
20260506023008 6 165 9.7 11.3 0.00 0.25 0.25 95 1011.0
20260506022505 7 167 9.7 11.3 0.00 0.25 0.25 95 1011.1
20260506022002 7 167 9.7 11.3 0.00 0.25 0.25 95 1010.9
20260506021500 7 195 9.7 12.9 0.18 0.25 0.25 95 1010.8